Probability
0 1 1 1 0 0 0 0 0 0 0 0 0 0 0 0 0 0 0 0 0 0 1 2 2 1 0 0 0 0 0 0 0 0 0 0 0 0 0 0 0 0 0
0 0 0 0 0 0 0 0 0 0 0 0 0 0 0 0 0 0 0 0 0 0 0 1 1 0 0 0 0 0 0 0 0 0 0 0 0 0 0 0 0 0 0
0 0 0 0 0 0 0 0 0 0 0 0 0 0 0 0 0 0 0 0 0 0 0 0 0 0 0 0 0 0 0 0 0 0 0 0 0 0 0 0 0 0 0
0 0 0 0 0 0 0 0 0 0 0 0 0 0 0 0 0 0 0 0 0 0 0 0 0 0 0 0 0 0 0 0 0 0 0 0 0 0 0 0 0 0 0
0 0 0 0 0 0 0 0 0 0 0 0 0 0 0 0 0 0 0 0 0 0 0 0 0 0 0 0 0 0 0 0 0 0 0 0 0 0 0 0 0 0 0
0 0 0 0 0 0 0 0 0 0 0 0 0 0 0 0 0 0 0 0 1 1 1 0 0 0 0 0 0 0 0 0 0 0 0 0 0 0 0 0 0 0 0
0 0 0 0 0 0 0 0 0 0 0 0 0 0 0 0 0 0 0 0 1 1 1 0 0 0 0 0 0 0 0 0 0 0 0 0 0 0 0 0 0 0 0
0 0 0 0 0 0 0 0 0 0 0 0 0 0 0 0 1 0 0 0 0 0 0 0 0 0 0 0 0 0 0 0 0 0 0 0 0 0 0 0 0 0 0
0 0 0 0 0 0 0 0 0 0 0 0 0 0 0 0 0 0 0 0 0 0 0 0 0 0 0 0 0 0 0 0 0 0 0 0 0 0 0 0 0 0 0
0 0 0 0 0 0 0 0 0 0 0 0 0 0 0 0 0 0 0 0 0 0 0 0 0 0 0 0 0 0 0 0 0 0 0 0 0 0 0 0 0 0 0
0 0 0 0 0 0 0 0 0 0 0 0 0 0 0 0 0 0 0 0 0 0 0 0 0 0 0 0 0 0 0 0 0 0 0 0 0 0 0 0 0 0 0
0 0 0 0 0 0 0 0 0 0 0 0 0 0 0 0 0 0 0 0 0 0 0 0 0 0 0 0 0 0 0 0 0 0 0 0 0 0 0 0 0 0 0
0 0 0 0 0 0 0 0 0 0 0 0 0 0 0 0 0 0 0 0 0 0 0 0 0 0 0 0 0 0 0 0 0 0 0 0 0 0 0 0 0 0 0
0 0 0 0 0 0 0 0 0 0 0 0 0 0 0 0 0 0 0 0 0 0 0 0 0 0 0 0 0 0 0 0 0 0 0 0 0 1 1 0 0 0 0
2 1 0 0 0 0 0 0 0 0 0 0 0 0 0 0 0 0 0 0 0 0 0 0 0 0 0 0 0 0 0 0 0 0 0 0 0 1 1 0 0 0 0
5 3 1 0 0 0 0 0 0 0 0 0 0 0 0 0 0 0 0 0 0 0 0 0 0 0 0 0 0 0 0 0 0 0 0 0 0 1 1 0 0 0 0
5 4 2 1 0 0 0 0 0 0 0 0 0 0 1 1 1 0 1 1 0 0 0 0 0 0 0 0 0 0 0 0 0 1 0 0 0 0 0 0 0 0 1
3 2 1 1 0 0 0 0 0 0 0 0 0 0 1 2 2 1 2 2 1 0 0 0 0 0 0 0 0 0 0 0 0 0 0 0 0 0 0 0 0 0 1
2 1 0 0 0 0 0 0 0 0 0 0 0 0 1 2 2 1 2 2 1 0 0 0 0 0 0 0 0 0 0 0 0 0 0 0 0 0 0 0 0 0 1
1 0 0 0 0 0 0 0 0 0 0 0 0 0 1 3 3 2 1 1 0 0 0 0 0 0 0 0 0 0 0 0 0 0 0 0 0 0 0 0 0 0 1
2 1 0 0 0 0 0 0 0 0 0 0 0 0 1 3 4 3 2 1 0 0 0 0 0 0 0 0 0 0 0 0 0 0 0 0 0 0 0 0 0 0 1
5 3 1 1 0 0 0 0 0 0 0 0 0 0 0 2 3 4 3 2 1 0 0 0 0 0 0 0 0 0 0 0 0 0 0 0 0 0 0 0 0 0 0
6 4 3 2 1 1 1 0 0 0 0 0 0 0 0 1 2 3 3 3 2 1 1 0 0 0 0 0 0 0 0 0 0 0 0 0 0 0 0 0 0 0 0
5 4 4 4 2 1 2 1 0 0 0 0 0 0 0 0 2 3 3 3 3 3 2 1 1 0 0 0 0 0 0 0 0 0 0 0 0 0 0 0 0 0 0
5 4 4 4 2 1 1 2 1 1 1 0 0 0 1 1 2 3 4 3 3 3 3 3 2 1 0 0 0 0 0 0 0 0 0 0 0 0 0 0 0 0 0
5 5 4 3 1 0 1 2 2 3 2 1 0 1 2 2 3 4 5 4 3 3 3 3 3 2 1 0 0 0 0 0 0 0 0 0 0 0 0 0 0 0 0
Wind_Speed
2 2 9 11 13 14 15 15 16 16 16 16 16 16 16 17 16 16 16 16 16 16 17 17 16 16 16 16 16 16 16 16 15 15 15 15 15 15 14 15 14 11 15
2 3 9 11 12 13 14 15 15 15 15 16 16 16 16 16 16 16 16 16 16 17 17 16 16 16 16 16 16 15 15 15 15 15 15 14 14 14 14 14 13 10 14
3 3 6 10 12 13 13 14 15 15 15 15 15 16 16 16 17 16 16 16 16 16 16 16 16 16 16 15 15 14 14 14 14 14 13 8 10 13 13 14 14 14 14
4 3 6 10 11 12 13 13 14 14 15 14 14 15 15 15 16 16 16 16 15 16 16 16 16 15 15 14 13 13 13 13 13 13 7 7 7 11 12 13 13 13 13
4 3 5 11 11 12 12 12 13 13 14 14 14 14 14 15 15 15 15 15 15 15 15 15 15 14 14 13 12 12 12 12 12 10 6 6 5 10 12 12 12 13 13
4 3 5 10 10 11 12 12 12 13 13 13 13 13 13 14 14 14 14 13 13 13 14 14 13 13 12 12 11 11 11 11 10 7 6 5 5 9 11 11 12 12 12
4 3 5 10 10 10 11 11 11 12 12 12 13 13 12 12 12 13 13 12 12 12 12 12 12 11 11 10 10 9 9 10 7 6 5 4 5 8 10 10 11 11 10
4 3 4 8 10 9 10 10 11 11 11 12 12 12 11 11 11 11 11 11 11 10 10 10 10 10 9 9 8 8 8 9 7 6 5 4 5 7 9 9 10 10 10
4 4 3 3 5 8 9 9 10 10 10 10 10 10 10 10 9 9 9 9 9 9 9 8 8 8 8 7 7 7 7 8 6 4 5 3 6 8 9 9 9 9 9
3 3 3 4 4 3 4 7 9 9 8 8 9 9 8 8 8 8 7 7 7 7 7 7 7 7 7 6 6 5 7 7 5 4 3 4 7 8 8 8 8 8 8
2 2 2 3 3 3 3 4 5 6 6 6 5 7 7 4 4 4 4 5 5 5 5 5 5 5 5 4 4 5 5 3 4 3 2 6 8 8 8 7 7 7 8
3 2 1 2 2 2 2 3 2 3 3 4 3 4 3 3 2 3 4 4 4 4 4 4 4 4 4 2 2 3 2 3 3 2 3 7 8 8 7 7 7 7 7
3 2 2 2 1 1 1 2 2 2 2 2 3 2 2 2 2 2 2 3 3 3 3 3 4 2 1 1 1 1 2 2 2 2 3 7 7 8 8 7 7 7 7
4 4 3 3 2 1 1 1 1 1 1 1 1 1 1 1 1 1 1 1 2 1 1 1 1 2 1 1 1 2 2 2 2 2 3 7 7 8 8 7 7 7 7
5 4 4 3 3 2 2 1 1 1 1 1 0 1 1 1 0 1 1 1 1 0 0 1 1 1 1 1 0 1 2 2 2 2 2 6 7 7 7 7 7 7 7
6 5 4 4 3 3 2 2 1 1 1 1 1 2 2 1 1 1 1 1 1 1 0 0 0 0 1 0 0 0 1 2 2 2 2 2 5 6 6 6 7 7 7
6 5 4 4 4 3 3 3 2 2 1 1 1 2 2 3 2 2 1 1 1 1 0 0 1 1 0 0 1 1 1 1 2 2 2 1 2 4 5 5 5 5 6
5 5 4 5 4 3 3 2 2 2 2 2 1 1 2 3 3 2 1 2 1 0 0 0 0 1 1 1 1 1 0 1 1 2 2 1 1 1 3 4 4 4 5
6 5 4 3 4 3 2 1 1 1 1 1 1 1 2 2 3 2 2 2 1 1 1 1 0 1 1 1 1 1 1 0 1 1 2 2 1 1 1 2 4 4 5
5 4 4 3 3 2 2 1 0 0 0 0 1 1 2 2 3 2 2 2 2 1 1 1 1 1 1 1 1 1 1 1 1 1 1 1 1 1 1 1 2 2 3
5 4 4 4 3 3 2 1 1 1 1 1 1 2 2 2 2 2 2 2 2 2 2 2 2 2 1 2 2 1 2 1 1 0 0 0 1 1 1 1 1 1 1
6 6 5 4 4 3 2 2 2 1 1 1 1 1 1 2 2 3 3 2 2 2 2 2 2 1 1 2 2 1 0 2 2 1 1 1 0 0 0 1 1 1 1
7 7 6 5 5 4 3 2 1 1 1 1 1 1 1 1 2 2 2 2 2 2 2 2 3 3 2 1 2 3 2 2 0 1 2 1 1 1 1 1 1 1 1
8 7 6 5 4 4 4 3 3 2 2 2 1 1 1 1 1 1 1 2 2 2 2 3 3 3 3 2 1 1 2 3 2 0 1 2 2 2 1 1 1 1 1
8 7 6 5 4 4 4 5 4 3 2 1 1 1 1 1 1 1 1 1 2 2 2 3 2 3 3 3 2 2 1 1 2 2 1 0 1 1 1 1 1 1 2
6 6 6 5 4 4 4 4 4 4 3 2 2 1 1 1 1 1 1 1 1 1 2 2 2 2 2 2 2 2 2 2 2 3 3 2 1 1 1 1 1 1 1
Wind_Direction
32 60 86 89 90 90 90 90 91 93 94 95 95 97 99 102 103 101 100 100 98 98 97 98 100 100 101 102 103 104 105 106 107 108 107 106 107 107 108 108 107 107 110
100 81 93 93 92 92 93 92 93 94 95 96 96 95 95 99 103 102 100 98 99 98 99 99 99 100 101 102 102 103 105 105 107 109 107 106 108 109 110 110 110 112 113
87 78 94 95 93 93 94 94 94 94 95 95 96 96 94 95 100 99 100 98 99 99 100 100 101 101 101 102 103 103 104 105 105 104 100 98 107 111 113 116 115 112 112
99 88 100 100 97 96 96 96 96 97 97 97 97 97 97 97 99 99 99 98 100 100 101 102 101 100 100 101 104 104 104 104 104 101 91 95 105 114 116 119 118 117 115
97 91 109 105 102 100 97 96 97 98 99 99 97 97 98 98 98 99 100 100 101 101 101 101 101 100 100 100 103 104 106 108 108 100 92 88 94 116 117 121 121 119 117
100 94 111 107 104 103 102 100 100 101 101 101 100 99 99 99 98 99 99 100 100 100 100 100 101 100 98 99 102 107 110 113 107 102 98 100 106 119 121 124 123 121 121
102 89 105 111 108 107 106 104 103 103 102 101 101 101 101 99 98 98 100 100 100 100 101 100 100 99 98 99 103 108 115 117 111 109 108 109 118 127 127 127 126 126 126
104 93 103 115 113 109 106 104 103 103 102 102 101 101 100 99 99 98 99 101 100 99 100 101 101 100 98 98 101 106 114 120 116 117 117 120 134 133 134 132 132 133 134
89 87 74 85 101 109 109 107 106 105 103 103 102 100 99 99 99 98 96 99 99 96 96 99 101 99 97 98 102 109 118 124 118 125 135 132 145 144 141 139 138 138 139
82 78 73 69 69 73 90 108 109 107 106 104 103 101 97 93 91 92 90 94 96 92 92 94 96 97 94 95 101 115 122 122 123 132 138 153 158 157 152 150 149 148 148
113 78 82 82 78 75 83 99 97 100 94 91 89 90 79 57 56 69 84 93 93 88 86 88 91 89 86 84 95 114 113 119 134 145 153 166 168 167 164 162 162 162 161
168 157 124 109 92 74 86 75 56 56 56 57 55 60 63 59 49 58 47 65 69 67 65 66 61 70 72 64 72 92 111 136 146 160 174 177 177 176 174 173 172 171 169
174 176 169 144 118 103 74 81 62 52 51 51 53 61 59 52 42 40 30 21 26 34 33 31 33 37 54 78 90 109 137 148 161 180 184 187 189 186 184 182 181 180 179
171 193 189 166 155 152 120 91 91 80 67 67 56 72 77 58 38 31 30 17 22 26 30 31 31 16 32 68 125 147 157 165 179 190 196 195 196 195 194 193 191 192 193
181 193 191 174 173 168 149 169 158 169 175 176 141 131 141 136 75 29 7 353 329 357 41 44 36 15 16 20 125 161 172 180 182 191 202 201 197 199 201 202 203 204 206
185 190 180 176 184 172 171 182 191 193 195 196 198 196 182 173 170 184 263 291 290 287 287 70 61 5 347 342 338 161 186 176 179 186 199 212 210 206 209 211 213 213 216
182 178 176 181 180 179 186 194 187 196 186 200 214 210 197 187 184 187 221 272 272 265 272 38 30 26 355 59 61 107 140 164 168 177 185 198 227 222 217 218 223 222 226
168 169 179 182 171 180 181 190 184 190 190 207 209 205 204 194 185 184 202 244 249 226 165 85 26 42 34 57 56 34 74 153 184 179 176 183 204 236 236 234 238 240 239
171 170 174 174 168 179 177 179 188 185 194 211 211 207 206 193 186 188 207 227 202 166 201 229 133 121 88 73 79 47 30 116 191 180 183 190 191 207 236 256 249 250 250
168 169 172 169 169 161 137 103 71 50 229 221 233 235 216 206 201 191 209 222 184 166 192 185 159 124 131 122 88 65 38 50 95 132 192 180 188 205 220 255 267 267 259
170 175 180 178 177 154 138 148 158 220 242 241 239 239 229 216 203 193 205 213 194 191 201 180 156 149 151 133 102 59 21 39 72 96 178 152 183 211 202 227 251 267 275
183 187 188 191 187 183 173 167 174 178 203 208 254 283 242 224 213 204 200 207 203 198 204 184 162 159 178 159 146 136 342 3 27 24 86 126 162 95 197 250 244 249 269
191 192 194 195 193 191 173 134 101 72 35 29 335 296 285 247 227 217 210 206 200 194 211 214 189 182 194 199 173 162 170 211 344 13 34 57 63 65 33 18 8 313 283
196 191 193 191 188 188 170 164 166 171 196 221 223 248 288 286 272 241 220 213 211 202 213 226 206 201 185 201 201 206 196 163 164 142 29 42 57 53 30 13 355 350 323
187 184 186 182 187 186 180 180 179 189 198 201 207 240 276 290 282 270 229 207 215 217 222 224 211 198 196 200 192 180 184 178 172 174 201 120 58 49 43 25 5 1 3
181 180 175 180 195 188 183 186 187 191 192 199 219 234 258 275 285 275 233 210 220 222 226 225 213 199 201 196 187 179 179 178 185 180 195 196 167 44 47 41 15 2 14